Benton Harbor, MI

4:12 AM EDT on May 24, 2017 (GMT -0400)
Southwest Michigan Regional

Weather History for KBEH - January, 2013

Change the Weather History Date:

Sunday, January 6, 2013

  Actual Average Record
Temperature  
Mean Temperature 34 °F -  
Max Temperature 37 °F 31 °F 60 °F (2008)
Min Temperature 32 °F 18 °F -5 °F (2014)
Degree Days  
Heating Degree Days 30    
Moisture  
Dew Point 28 °F    
Average Humidity 76    
Maximum Humidity 89    
Minimum Humidity 64    
Precipitation  
Precipitation 0.00 in - - ()
Sea Level Pressure  
Sea Level Pressure 30.09 in    
Wind  
Wind Speed 12 mph (West)    
Max Wind Speed 22 mph    
Max Gust Speed 32 mph    
Visibility 9 miles    
Events      
Averages and records for this station are not official NWS values.
T = Trace of Precipitation, MM = Missing Value Source: NWS Daily Summary

Daily Weather History Graph

Daily Weather History Graph

Search for Another Location

Airport or City:

Trip Planner

Search our weather history database for the weather conditions in past years. The results will help you decide how hot, cold, wet, or windy it might be!

Date:

Astronomy

Jan. 06, 2013 Rise Set
Actual Time 8:14 AM EST 5:29 PM EST
Civil Twilight 7:42 AM EST 6:01 PM EST
Nautical Twilight 7:07 AM EST 6:35 PM EST
Astronomical Twilight 6:33 AM EST 7:09 PM EST
Moon 2:25 AM EST (1/6) 12:58 PM EST (1/6)
Length of Visible Light 10h 18m
Length of Day
9h 15m
Waning Crescent, 33% of the Moon is Illuminated
Jan 6
Waning Crescent
Jan 11
New
Jan 18
First Quarter
Jan 26
Full
Feb 3
Last Quarter

Hourly Weather History & Observations

Time (EST) Temp. Windchill Dew Point Humidity Pressure Visibility Wind Dir Wind Speed Gust Speed Precip Events Conditions
12:09 AM 35.6 °F 26.6 °F 30.2 °F 81% 29.98 in 9.0 mi SW 13.8 mph - N/A   Overcast
12:53 AM 35.1 °F 26.9 °F 30.9 °F 85% 29.99 in 8.0 mi SW 11.5 mph 19.6 mph N/A   Overcast
1:53 AM 35.1 °F 26.9 °F 32.0 °F 89% 29.96 in 8.0 mi SW 11.5 mph - N/A   Overcast
2:53 AM 36.0 °F 28.5 °F 32.0 °F 86% 29.95 in 8.0 mi SSW 10.4 mph - N/A   Overcast
3:53 AM 36.0 °F 27.5 °F 30.9 °F 82% 29.94 in 9.0 mi SW 12.7 mph 19.6 mph N/A   Overcast
4:53 AM 36.0 °F 28.5 °F 32.0 °F 86% 29.93 in 8.0 mi SW 10.4 mph - N/A   Overcast
5:53 AM 37.0 °F 28.5 °F 32.0 °F 82% 29.91 in 8.0 mi SW 13.8 mph - N/A   Overcast
6:53 AM 37.0 °F 28.5 °F 32.0 °F 82% 29.91 in 7.0 mi WSW 13.8 mph 23.0 mph N/A   Overcast
7:53 AM 36.0 °F 24.7 °F 30.0 °F 79% 29.94 in 9.0 mi WSW 21.9 mph 32.2 mph N/A   Overcast
8:53 AM 34.0 °F 22.4 °F 28.0 °F 79% 29.95 in 6.0 mi West 20.7 mph - N/A   Haze
9:53 AM 32.0 °F 21.2 °F 25.0 °F 75% 29.99 in 6.0 mi West 16.1 mph 23.0 mph N/A   Haze
11:53 AM 32.0 °F 24.2 °F 23.0 °F 69% 30.03 in 5.0 mi NW 9.2 mph 18.4 mph N/A   Haze
12:53 PM 32.0 °F 21.6 °F 26.1 °F 79% 30.04 in 4.0 mi WNW 15.0 mph 26.5 mph N/A   Haze
1:53 PM 34.0 °F 25.5 °F 27.0 °F 75% 30.05 in 9.0 mi WNW 11.5 mph 20.7 mph N/A   Overcast
2:53 PM 35.1 °F 25.5 °F 28.9 °F 78% 30.07 in 8.0 mi WNW 15.0 mph 24.2 mph 0.00 in   Overcast
3:53 PM 35.1 °F 26.9 °F 28.9 °F 78% 30.12 in 10.0 mi NW 11.5 mph 21.9 mph N/A   Overcast
4:14 PM 35.6 °F 27.5 °F 28.4 °F 75% 30.10 in 10.0 mi WNW 11.5 mph 19.6 mph N/A   Overcast
4:34 PM 35.6 °F 27.5 °F 28.4 °F 75% 30.12 in 10.0 mi WNW 11.5 mph 18.4 mph N/A   Overcast
4:53 PM 36.0 °F 27.1 °F 28.0 °F 73% 30.15 in 10.0 mi WNW 13.8 mph 19.6 mph N/A   Overcast
5:00 PM 35.6 °F 28.6 °F 28.4 °F 75% 30.13 in 10.0 mi NW 9.2 mph 19.6 mph N/A   Overcast
5:37 PM 35.6 °F 28.0 °F 28.4 °F 75% 30.16 in 10.0 mi NW 10.4 mph 19.6 mph N/A   Overcast
5:44 PM 35.6 °F 28.6 °F 28.4 °F 75% 30.16 in 10.0 mi NW 9.2 mph 21.9 mph N/A   Overcast
5:53 PM 36.0 °F 27.1 °F 27.0 °F 70% 30.19 in 10.0 mi NW 13.8 mph 21.9 mph N/A   Overcast
6:53 PM 36.0 °F 29.6 °F 27.0 °F 70% 30.22 in 10.0 mi NW 8.1 mph - N/A   Overcast
7:53 PM 35.1 °F 27.9 °F 26.1 °F 70% 30.26 in 10.0 mi NW 9.2 mph - N/A   Overcast
8:53 PM 35.1 °F 29.3 °F 24.1 °F 64% 30.29 in 10.0 mi Variable 6.9 mph - N/A   Overcast
9:53 PM 35.1 °F 30.1 °F 24.1 °F 64% 30.30 in 10.0 mi WNW 5.8 mph - N/A   Overcast
10:53 PM 34.0 °F 31.0 °F 23.0 °F 64% 30.31 in 10.0 mi Variable 3.5 mph - N/A   Overcast
11:53 PM 33.1 °F 25.5 °F 25.0 °F 72% 30.32 in 10.0 mi WSW 9.2 mph - N/A   Overcast